Back to catalog

STARLINK-36243

AliveCommunicationsVLEO
NORAD 67077·PAYLOAD·🇺🇸 United States

Launched Dec 14, 2025 from Vandenberg Space Force Base

Loading…

Next Passes (next 24 hours)

TLE

FreshSource: CelesTrak SupGP

Epoch: Sep 15, 2026, 02:56 UTC

1 67077C 25298C   26258.12270833 -.00049526  00000+0 -41494-2 0  2581
2 67077  69.9994 257.0044 0004068 265.1013 259.3011 14.98362775    17

Track STARLINK-36243 in real time with AllMySat

Download on the App Store